Location: Bégole
(43.1574°N, 0.3291°E)
Time: 01:36:44
(UTC+00:00)

Cosmos 1140 Rocket - Pass Details

Date: 28 January 2023
Orbit: 744 x 766 km, 74.1° (Epoch: 27 March)

Event Time Altitude Azimuth Distance (km) Brightness Sun altitude
Rises 18:02:38 0° 185° (S) 3,203 7.0 -10.7°
Reaches altitude 10° 18:05:02 10° 181° (S) 2,279 6.2 -11.1°
Maximum altitude 18:10:03 54° 105° (ESE) 914 3.6 -12.0°
Drops below altitude 10° 18:15:05 10° 29° (NNE) 2,280 5.6 -12.9°
Enters shadow 18:16:14 - 27° (NNE) 2,725 6.0 -13.1°
